Terug naar catalogus

STARLINK-5932

ActiefCommunicatieVLEO
NORAD 55943·PAYLOAD·🇺🇸 United States

Gelanceerd Mar 17, 2023 vanaf Vandenberg Space Force Base

Loading…

Volgende Passages (komende 24 uur)

TLE

VersSource: CelesTrak SupGP

Epoch: Sep 15, 2026, 02:17 UTC

1 55943C 23037AF  26258.09562500  .00200940  00000+0  15936-1 0  2588
2 55943  70.0000 166.7704 0003051 273.4723 109.6296 15.00349327    11

Volg STARLINK-5932 in realtime met AllMySat

Download on the App Store